Terug naar catalogus

STARLINK-37864

ActiefCommunicatieSSO
NORAD 100107·PAYLOAD·🇺🇸 United States

Gelanceerd Jul 21, 2026 vanaf Vandenberg Space Force Base

Loading…

Volgende Passages (komende 24 uur)

TLE

VersSource: Space-Track

Epoch: Sep 14, 2026, 01:21 UTC

1 A0107U 26166G   26257.05690865  .00064220  00000-0  42824-3 0  9997
2 A0107  97.2834 275.0065 0001269  82.4857 277.6552 15.75187799  8584

Volg STARLINK-37864 in realtime met AllMySat

Download on the App Store